[[{"header":{"parameterUnit":"m.s-1","parameterCategory":1,"la1":30.2991,"la2":30.254,"lo1":-89.0895,"lo2":-89.0444,"dy":0.0017,"dx":0.0017,"nx":28,"ny":28,"refTime":"2023-10-24T21:00:00:Z","depth":0,"parameterNumber":2,"parameterNumberName":"U-component_of_WINDS"},"data":[0,0,0,0,0,0,0,0,0,0,0,0,0,0,0,0,0,0,0,0,0,0,0,0,0,0,0,0,0,0,0,0,0,0,0,0,0,0,0,0,0,0,0,0,0,0,0,0,0,0,0,0,0,0,0,0,0,0,-5.1185,-5.1185,0,-5.1174,-5.1174,-5.1174,-5.1031,-5.1027,-5.1023,-5.102,-5.1008,-5.1011,-5.1014,0,0,0,0,0,0,0,0,0,0,0,0,0,-5.1085,-5.1088,-5.1185,-5.1185,-5.1185,-5.1174,-5.1174,-5.1174,-5.1031,-5.1027,-5.1022,-5.1018,-5.1007,-5.1011,-5.1015,0,0,0,0,0,0,0,0,0,0,0,0,0,-5.1107,-5.1089,-5.1185,-5.1113,-5.1106,-5.1174,-5.1174,-5.1174,-5.1032,-5.1027,-5.1021,-5.1016,-5.1006,-5.1011,-5.1015,-5.1152,0,0,-5.1029,-5.1031,0,0,0,0,0,0,0,0,-5.1106,-5.1111,-5.1124,-5.1118,-5.1111,-5.1098,-5.1134,-5.1166,-5.1033,-5.106,-5.102,-5.1014,-5.1043,-5.1044,-5.1054,-5.1151,-5.1151,-5.103,-5.1032,-5.1034,-5.1036,0,0,0,0,0,0,0,-5.1104,-5.111,-5.1181,-5.1124,-5.1116,-5.1081,-5.1078,-5.1139,-5.1082,-5.1057,-5.1047,-5.1048,-5.1038,-5.105,-5.1052,-5.1151,-5.1029,-5.1033,-5.1036,-5.1038,-5.136,-5.1366,0,0,0,0,0,0,-5.1113,-5.111,-5.1181,-5.118,-5.1095,-5.1087,-5.1084,-5.1108,-5.1081,-5.1072,-5.1052,-5.1041,-5.1044,-5.1047,-5.1051,-5.1208,-5.1034,-5.1039,-5.1041,-5.1355,-5.1362,-5.1368,0,0,0,0,0,0,-5.1111,-5.1121,-5.1182,-5.1142,-5.1147,-5.1095,-5.1122,-5.111,-5.1121,-5.1077,-5.1066,-5.1074,-5.104,-5.1045,-5.1128,-5.1206,-5.1041,-5.1045,-5.1348,-5.1357,-5.1365,-5.1525,0,0,0,0,0,0,-5.1109,-5.1121,-5.1172,-5.1145,-5.115,-5.1258,-5.1127,-5.1114,-5.113,-5.1115,-5.1095,-5.1086,-5.1036,-5.1122,-5.1133,-5.1209,-5.1048,-5.134,-5.1352,-5.1362,-5.1513,-5.1538,-5.156,0,0,0,0,0,-5.1106,-5.1217,-5.1175,-5.1184,-5.1213,-5.1263,-5.1266,-5.1206,-5.1137,-5.1187,-5.1159,-5.1087,-5.1197,-5.1132,-5.1142,-5.1222,-5.1335,-5.1348,-5.1361,-5.1502,-5.1533,-5.156,0,0,0,0,0,0,-5.1254,-5.1212,-5.1165,-5.1271,-5.1272,-5.1239,-5.13,-5.1241,-5.1262,-5.1247,-5.1172,-5.1169,-5.1264,-5.1251,-5.1179,-5.1353,-5.1253,-5.1269,-5.1357,-5.1386,-5.141,-5.1409,-5.1052,0,0,0,0,0,-5.1299,-5.1344,-5.1305,-5.1402,-5.1405,-5.1354,-5.1373,-5.1328,-5.1325,-5.1325,-5.1302,-5.1303,-5.1338,-5.1362,-5.1391,-5.1512,-5.1505,-5.1572,-5.1596,-5.1616,-5.1629,-5.1692,-5.1721,-5.1411,-5.1411,-5.141,0,0,-5.1392,-5.1375,-5.1408,-5.1432,-5.1427,-5.1474,-5.1355,-5.141,-5.1444,-5.1333,-5.1409,-5.1394,-5.139,-5.1493,-5.1536,-5.1485,-5.1714,-5.1632,-5.1649,-5.1651,-5.1708,-5.1738,-5.1764,-5.142,-5.1418,-5.1417,0,0,-5.1586,-5.1578,-5.1658,-5.1656,-5.1651,-5.1616,-5.1636,-5.1613,-5.1598,-5.1675,-5.1592,-5.1633,-5.1694,-5.1695,-5.1703,-5.1901,-5.1835,-5.1913,-5.2036,-5.2098,-5.2123,-5.2144,-5.2213,-5.2239,-5.1928,-5.1928,-5.1928,0,-5.1702,-5.177,-5.1706,-5.1767,-5.178,-5.1684,-5.1764,-5.1765,-5.177,-5.1782,-5.1725,-5.18,-5.1791,-5.1892,-5.1941,-5.1951,-5.1971,-5.1913,-5.2124,-5.2145,-5.2164,-5.2229,-5.2255,-5.1937,-5.1936,-5.1935,-5.1934,0,-5.1913,-5.1962,-5.2027,-5.2034,-5.2055,-5.2126,-5.2073,-5.2102,-5.2056,-5.2028,-5.2108,-5.2094,-5.2118,-5.214,-5.2095,-5.2235,-5.2203,-5.2138,-5.2035,-5.2204,-5.2263,-5.2288,-5.1951,-5.1947,-5.1944,-5.1942,0,0,-5.2195,-5.2169,-5.2193,-5.2196,-5.2184,-5.2221,-5.2289,-5.2313,-5.2339,-5.2347,-5.2401,-5.2457,-5.2396,-5.2406,-5.2361,-5.2416,-5.2572,-5.2342,-5.2341,-5.2383,-5.2724,-5.2772,-5.2802,-5.253,-5.2535,-5.2538,-5.2724,0,-5.238,-5.2491,-5.2438,-5.2556,-5.26,-5.2511,-5.2569,-5.2569,-5.2546,-5.2581,-5.2555,-5.2595,-5.2512,-5.2517,-5.2568,-5.2542,-5.2639,-5.2529,-5.2578,-5.2581,-5.2579,-5.2833,-5.2884,-5.306,-5.2747,-5.2751,-5.2754,0,-5.2609,-5.2627,-5.275,-5.2732,-5.2748,-5.2802,-5.282,-5.2855,-5.2854,-5.2833,-5.2846,-5.2789,-5.2854,-5.2756,-5.2845,-5.2771,-5.2789,-5.278,-5.2785,-5.2785,-5.2675,-5.2838,-5.3114,-5.314,-5.279,-5.2788,-5.2785,0,-5.28,-5.2855,-5.2936,-5.2941,-5.2922,-5.2962,-5.2956,-5.295,-5.2969,-5.2986,-5.2997,-5.3023,-5.3036,-5.3058,-5.3009,-5.2942,-5.3104,-5.3002,-5.3088,-5.3089,-5.3123,-5.3121,-5.3404,-5.314,-5.314,-5.3139,-5.3139,0,-5.301,-5.3088,-5.3021,-5.3071,-5.3156,-5.3095,-5.3182,-5.3166,-5.3162,-5.3207,-5.3133,-5.3176,-5.3111,-5.3149,-5.3113,-5.3191,-5.3198,-5.3183,-5.3172,-5.3188,-5.319,-5.3196,-5.3181,-5.3146,-5.3145,-5.3143,-5.3142,0,-5.3235,-5.3194,-5.3276,-5.3253,-5.3249,-5.3313,-5.3292,-5.3337,-5.3311,-5.3369,-5.3379,-5.3337,-5.3378,-5.3333,-5.3371,-5.3346,-5.3451,-5.3424,-5.3451,-5.3442,-5.353,-5.3522,-5.3824,-5.3861,-5.3577,-5.358,-5.3582,0,-5.337,-5.3428,-5.3412,-5.3437,-5.3436,-5.3477,-5.3496,-5.344,-5.3463,-5.3467,-5.3512,-5.3547,-5.3571,-5.3642,-5.3614,-5.3643,-5.3614,-5.3718,-5.3617,-5.3632,-5.3613,-5.3609,-5.3614,-5.3738,-5.3741,-5.3744,-5.3746,0,-5.3614,-5.3591,-5.3621,-5.3646,-5.3671,-5.3688,-5.3698,-5.3724,-5.3665,-5.3695,-5.3736,-5.3756,-5.3795,-5.383,-5.3852,-5.3846,-5.3787,-5.3779,-5.38,-5.3815,-5.3828,-5.382,-5.3504,-5.3771,-5.3769,-5.3767,-5.3765,-5.3764,-5.3796,-5.3844,-5.384,-5.3877,-5.388,-5.3892,-5.3933,-5.3912,-5.3946,-5.3973,-5.3938,-5.3989,-5.3988,-5.4011,-5.4013,-5.4052,-5.4007,-5.4038,-5.4046,-5.4053,-5.4066,-5.3825,-5.4056,-5.4055,-5.4055,-5.4054,-5.4054,0,-5.4034,-5.4028,-5.4062,-5.408,-5.411,-5.4053,-5.4063,-5.4091,-5.4137,-5.4142,-5.4168,-5.4216,-5.4251,-5.4228,-5.4258,-5.4294,-5.4267,-5.4303,-5.4298,-5.4298,-5.4105,-5.4082,-5.4324,-5.4324,-5.4324,-5.4324,-5.4324,-5.4324,-5.416,-5.4238,-5.4216,-5.4294,-5.4287,-5.4337,-5.4347,-5.4358,-5.4361,-5.4419,-5.4447,-5.4433,-5.4426,-5.4455,-5.4485,-5.4478,-5.4491,-5.4536,-5.4519,-5.4338,-5.4311,-5.4286,-5.4264,-5.454,-5.4541,-5.4708,-5.471,-5.4711]},{"header":{"parameterUnit":"m.s-1","parameterCategory":1,"la1":30.2991,"la2":30.254,"lo1":-89.0895,"lo2":-89.0444,"dy":0.0017,"dx":0.0017,"nx":28,"ny":28,"refTime":"2023-10-24T21:00:00:Z","depth":0,"parameterNumber":3,"parameterNumberName":"V-component_of_WINDS"},"data":[0,0,0,0,0,0,0,0,0,0,0,0,0,0,0,0,0,0,0,0,0,0,0,0,0,0,0,0,0,0,0,0,0,0,0,0,0,0,0,0,0,0,0,0,0,0,0,0,0,0,0,0,0,0,0,0,0,0,2.942,2.942,0,2.9421,2.9421,2.9421,2.9321,2.9318,2.9315,2.9313,2.9312,2.9315,2.9317,0,0,0,0,0,0,0,0,0,0,0,0,0,2.9335,2.9337,2.942,2.942,2.942,2.9421,2.9421,2.9421,2.9321,2.9318,2.9315,2.9312,2.9312,2.9315,2.9317,0,0,0,0,0,0,0,0,0,0,0,0,0,2.9358,2.9338,2.942,2.9371,2.9366,2.9421,2.9421,2.9421,2.9322,2.9318,2.9314,2.931,2.9311,2.9314,2.9318,2.942,0,0,2.9329,2.9331,0,0,0,0,0,0,0,0,2.9357,2.9361,2.9378,2.9374,2.9369,2.9367,2.939,2.942,2.9323,2.9339,2.9313,2.9308,2.9334,2.9335,2.9344,2.942,2.9419,2.9329,2.9332,2.9333,2.9334,0,0,0,0,0,0,0,2.9355,2.936,2.942,2.9378,2.9373,2.9349,2.9348,2.9396,2.9358,2.9337,2.933,2.9331,2.933,2.9341,2.9343,2.9419,2.9329,2.9333,2.9335,2.9336,2.9582,2.9586,0,0,0,0,0,0,2.936,2.936,2.942,2.942,2.9353,2.9354,2.9352,2.9371,2.9357,2.9352,2.9335,2.9326,2.9336,2.9339,2.9343,2.9462,2.9333,2.9337,2.9339,2.9577,2.9583,2.9587,0,0,0,0,0,0,2.9359,2.9367,2.942,2.9388,2.9393,2.9359,2.9382,2.9374,2.9383,2.9356,2.9348,2.9352,2.9333,2.9338,2.9402,2.946,2.9338,2.9342,2.9572,2.9579,2.9585,2.9701,0,0,0,0,0,0,2.9357,2.9367,2.9404,2.939,2.9395,2.9479,2.9385,2.9376,2.939,2.938,2.937,2.9364,2.933,2.9397,2.9406,2.9463,2.9344,2.9567,2.9575,2.9583,2.9691,2.971,2.9726,0,0,0,0,0,2.9354,2.9436,2.9407,2.9414,2.9441,2.9483,2.9486,2.9445,2.9395,2.9433,2.9416,2.9365,2.9453,2.9404,2.9413,2.9473,2.9563,2.9573,2.9582,2.9683,2.9707,2.9726,0,0,0,0,0,0,2.9456,2.9433,2.94,2.9479,2.9484,2.9466,2.9512,2.9471,2.9489,2.9478,2.9428,2.9426,2.9499,2.9493,2.9439,2.9572,2.9499,2.9511,2.9573,2.9595,2.9612,2.9611,2.9347,0,0,0,0,0,2.9489,2.9524,2.9502,2.9574,2.9578,2.9546,2.9562,2.9531,2.9533,2.9534,2.9521,2.9526,2.9555,2.9575,2.96,2.9691,2.9688,2.9737,2.9754,2.9769,2.9779,2.9829,2.9851,2.9619,2.9619,2.9619,0,0,2.9555,2.9546,2.9571,2.9595,2.9594,2.9633,2.9547,2.9591,2.9619,2.9541,2.96,2.9592,2.9594,2.9673,2.9707,2.967,2.9843,2.9781,2.9793,2.9795,2.9841,2.9863,2.9883,2.9626,2.9624,2.9623,0,0,2.9694,2.9692,2.9752,2.9755,2.9757,2.9735,2.975,2.9739,2.9731,2.9791,2.9733,2.9767,2.9817,2.9822,2.983,2.9978,2.9931,2.9987,3.0078,3.0127,3.0145,3.0161,3.0214,3.0234,2.9998,2.9999,2.9999,0,2.9776,2.9831,2.9789,2.9837,2.985,2.9783,2.9845,2.985,2.9859,2.987,2.9829,2.9893,2.9889,2.9969,3.0005,3.0015,3.0031,2.9987,3.0146,3.0162,3.0176,3.0226,3.0246,3.0005,3.0005,3.0004,3.0003,0,2.9932,2.9972,3.0021,3.0033,3.0052,3.0107,3.0074,3.0098,3.0067,3.0051,3.0114,3.0108,3.0132,3.0149,3.0118,3.0226,3.0203,3.0155,3.008,3.0206,3.0252,3.027,3.0015,3.0013,3.0011,3.0009,0,0,3.0131,3.0124,3.0142,3.0148,3.0148,3.0178,3.0231,3.0256,3.0278,3.0288,3.0332,3.0379,3.0336,3.0346,3.0316,3.0359,3.0478,3.0306,3.0305,3.0338,3.0597,3.0632,3.0655,3.0448,3.0452,3.0454,3.0597,0,3.0267,3.0357,3.0323,3.0416,3.0453,3.0393,3.044,3.0445,3.0432,3.0462,3.0448,3.0482,3.0422,3.0428,3.0469,3.0455,3.0529,3.0444,3.0488,3.0491,3.0489,3.0679,3.0715,3.0849,3.0614,3.0617,3.0619,0,3.0435,3.0455,3.0552,3.0548,3.0562,3.0605,3.0626,3.0656,3.0662,3.0649,3.0664,3.0625,3.0679,3.0607,3.068,3.0623,3.064,3.0637,3.0641,3.0642,3.0561,3.0685,3.0891,3.0911,3.0647,3.0645,3.0643,0,3.0571,3.0622,3.0687,3.0694,3.0691,3.0723,3.0723,3.0725,3.0743,3.0763,3.0774,3.0799,3.0813,3.0833,3.0804,3.0754,3.0882,3.0807,3.0873,3.0874,3.0901,3.0899,3.1113,3.0914,3.0914,3.0914,3.0913,0,3.0725,3.0787,3.0749,3.0789,3.0857,3.0819,3.0888,3.0881,3.0885,3.0923,3.0873,3.0911,3.0869,3.0903,3.0881,3.0946,3.0952,3.0944,3.0937,3.0948,3.0949,3.0957,3.0946,3.0919,3.0918,3.0917,3.0916,0,3.0887,3.0864,3.0931,3.0925,3.0925,3.0975,3.0969,3.1007,3.0992,3.1042,3.1052,3.1029,3.1066,3.1039,3.1076,3.1061,3.1147,3.1127,3.1145,3.1139,3.1207,3.1201,3.1432,3.1461,3.1245,3.1247,3.1249,0,3.0986,3.1033,3.1032,3.1055,3.1059,3.1096,3.1115,3.108,3.1102,3.1115,3.1152,3.1186,3.121,3.1274,3.126,3.1289,3.127,3.1349,3.1273,3.1284,3.1271,3.1268,3.1273,3.1363,3.1366,3.1368,3.1369,0,3.1164,3.1151,3.1181,3.1208,3.1233,3.1252,3.1267,3.1289,3.1254,3.1282,3.1321,3.134,3.138,3.1415,3.1439,3.144,3.14,3.1394,3.1411,3.1422,3.143,3.1427,3.1186,3.1388,3.1386,3.1385,3.1384,3.1383,3.1297,3.1337,3.1343,3.1379,3.1388,3.1404,3.144,3.1431,3.1463,3.1493,3.1471,3.1518,3.1526,3.1555,3.1562,3.1598,3.1565,3.159,3.1596,3.1602,3.1612,3.1426,3.1602,3.1602,3.1601,3.1601,3.16,0,3.1472,3.1475,3.1508,3.1532,3.1561,3.1523,3.1539,3.1566,3.1608,3.1619,3.1646,3.1692,3.1726,3.1718,3.1749,3.178,3.1763,3.1789,3.1786,3.1787,3.1639,3.1621,3.1803,3.1803,3.1803,3.1803,3.1803,3.1803,3.1566,3.1632,3.1621,3.1692,3.1694,3.174,3.1753,3.1768,3.1778,3.1832,3.1861,3.1856,3.186,3.1891,3.1922,3.1919,3.1932,3.1966,3.1956,3.1817,3.1797,3.1778,3.1761,3.1969,3.197,3.2101,3.2102,3.2103]}]]